Overview Statistics Trail Chart Weather Telemetry Raw packets
 

This is the latest recevied weather packets stored in our database for station/object VE7PRT-1. If no packets are shown the sender has not sent any weather packets the latest 10 day(s).

<< 1 2 3 4 >>
Time Temp. Humidity Pressure Rain* Wind** Luminosity Snow
1788623050 15° C 98% 1018.2 hPa 0 mm - - -
1788622210 14.44° C 98% 1018.3 hPa 0 mm - - -
1788621351 14.44° C 98% 1018.2 hPa 0 mm - - -
1788620606 14.44° C 98% 1018.2 hPa 0 mm - - -
1788619730 14.44° C 98% 1018 hPa 0.51 mm - - -
1788618870 14.44° C 98% 1017.8 hPa 0.51 mm - - -
1788618090 15° C 98% 1017.7 hPa 0.51 mm - - -
1788617221 15° C 98% 1017.6 hPa 0.25 mm - - -
1788616461 15° C 98% 1017.5 hPa 1.27 mm - - -
1788615701 15° C 98% 1017.4 hPa 0.76 mm - - -
1788614876 15° C 98% 1017.4 hPa 0.51 mm - - -
1788614077 14.44° C 97% 1017.4 hPa 0.51 mm - - -
1788613251 14.44° C 97% 1017.3 hPa 0 mm - - -
1788612526 14.44° C 97% 1017.2 hPa 0 mm - - -
1788611656 14.44° C 97% 1017.1 hPa 0 mm - - -
1788610780 14.44° C 97% 1016.9 hPa 0 mm - - -
1788610038 14.44° C 98% 1016.9 hPa 0 mm - - -
1788609334 14.44° C 98% 1016.9 hPa 0 mm - - -
1788608496 14.44° C 98% 1016.9 hPa 0 mm - - -
1788607676 14.44° C 98% 1016.9 hPa 0 mm - - -
1788606946 14.44° C 98% 1016.9 hPa 0 mm - - -
1788606078 14.44° C 98% 1016.9 hPa 0 mm - - -
1788605256 14.44° C 97% 1016.8 hPa 0 mm - - -
1788604506 14.44° C 98% 1016.7 hPa 0 mm - - -
1788603606 14.44° C 98% 1016.9 hPa 0 mm - - -

* Rain latest hour (hover to see other rain measurements)
** Current wind speed in m/s (hover to see current wind gust speed)